Location: Aalsum
(53.3404°N, 6.0062°E)
Time: 05:24:09
(UTC+00:00)

Cosmos 2026 Rocket - Visible Passes

Search period start: 30 September 2023 00:00
Search period end: 10 October 2023 00:00
Orbit: 938 x 1001 km, 82.9° (Epoch: 29 September)

Date Brightness Start Highest point End Pass type
(mag) Time Alt. Az. Time Alt. Az. Time Alt. Az.
30 Sep 5.2 00:48:07 35° ENE 00:48:07 35° ENE 00:52:45 10° NNE visible
30 Sep 4.3 02:32:40 47° WNW 02:32:40 47° WNW 02:38:16 10° N visible
30 Sep 5.8 04:17:14 10° WNW 04:19:21 12° NW 04:21:27 10° NNW visible
30 Sep 6.4 23:27:19 12° ENE 23:27:19 12° ENE 23:28:43 10° NE visible
01 Oct 4.7 01:11:52 50° NE 01:11:52 50° NE 01:16:37 10° NNE visible
01 Oct 4.8 02:56:25 31° WNW 02:56:25 31° WNW 03:01:40 10° N visible
01 Oct 6.0 23:51:02 18° ENE 23:51:02 18° ENE 23:53:53 10° NE visible
02 Oct 4.4 01:35:36 57° N 01:35:36 57° N 01:40:20 10° N visible
02 Oct 5.3 03:20:09 21° WNW 03:20:22 21° WNW 03:24:53 10° N visible
03 Oct 5.7 00:14:46 26° NE 00:14:46 26° NE 00:18:10 10° NNE visible
03 Oct 4.5 01:59:19 47° NNW 01:59:19 47° NNW 02:03:56 10° N visible
03 Oct 5.7 03:43:51 14° WNW 03:44:37 14° NW 03:47:43 10° NNW visible
04 Oct 5.3 00:38:27 34° NE 00:38:27 34° NE 00:42:07 10° NNE visible
04 Oct 4.9 02:23:00 34° NW 02:23:00 34° NW 02:27:24 10° N visible
04 Oct 6.3 23:17:35 13° NE 23:17:35 13° NE 23:18:59 10° NE visible
05 Oct 5.0 01:02:08 40° NNE 01:02:08 40° NNE 01:05:54 10° NNE visible
05 Oct 5.3 02:46:41 24° NW 02:46:41 24° NW 02:50:42 10° N visible
05 Oct 6.0 23:41:16 19° NE 23:41:16 19° NE 23:43:31 10° NNE visible
06 Oct 5.0 01:25:48 39° N 01:25:48 39° N 01:29:33 10° N visible
06 Oct 5.6 03:10:21 17° NW 03:10:21 17° NW 03:13:45 10° NNW visible
07 Oct 5.8 00:04:55 25° NE 00:04:55 25° NE 00:07:36 10° NNE visible
07 Oct 5.1 01:49:28 33° NNW 01:49:28 33° NNW 01:53:04 10° N visible
07 Oct 5.9 03:34:01 11° NW 03:34:17 11° NW 03:35:58 10° NNW visible
08 Oct 5.6 00:28:34 29° NNE 00:28:34 29° NNE 00:31:27 10° NNE visible
08 Oct 5.4 02:13:07 25° NNW 02:13:07 25° NNW 02:16:28 10° N visible
08 Oct 6.3 23:07:39 14° NE 23:07:39 14° NE 23:08:47 10° NE visible
09 Oct 5.5 00:52:12 31° N 00:52:12 31° N 00:55:09 10° N visible
09 Oct 5.7 02:36:45 18° NW 02:36:45 18° NW 02:39:39 10° N visible
09 Oct 6.1 23:31:17 18° NE 23:31:17 18° NE 23:33:01 10° NNE visible
